This is the latest recevied weather packets stored in our database for station/object DO1SC. If no packets are shown the sender has not sent any weather packets the latest 10 day(s).
| Time | Temp. | Humidity | Pressure | Rain* | Wind** | Luminosity | Snow |
|---|---|---|---|---|---|---|---|
| 1777683329 | 8.33° C | 72% | 1026.1 hPa | - | - | 0 W/m² | - |
| 1777682722 | 8.33° C | 72% | 1026.1 hPa | - | - | 0 W/m² | - |
| 1777682132 | 8.33° C | 73% | 1026.1 hPa | - | - | 0 W/m² | - |
| 1777681521 | 8.33° C | 73% | 1026.3 hPa | - | - | 0 W/m² | - |
| 1777680933 | 9.44° C | 71% | 1026.3 hPa | - | - | 0 W/m² | - |
| 1777680324 | 9.44° C | 71% | 1026.5 hPa | - | - | 0 W/m² | - |
| 1777679735 | 8.89° C | 72% | 1026.5 hPa | - | - | 0 W/m² | - |
| 1777679125 | 8.89° C | 71% | 1026.5 hPa | - | - | 0 W/m² | - |
| 1777678536 | 10° C | 69% | 1026.7 hPa | - | - | 0 W/m² | - |
| 1777677928 | 10° C | 69% | 1026.7 hPa | - | - | 0 W/m² | - |
| 1777677319 | 10° C | 69% | 1026.6 hPa | - | - | 0 W/m² | - |
| 1777676731 | 10° C | 69% | 1026.6 hPa | - | - | 0 W/m² | - |
| 1777676122 | 10° C | 68% | 1026.8 hPa | - | - | 0 W/m² | - |
| 1777675537 | 10° C | 68% | 1026.8 hPa | - | - | 0 W/m² | - |
| 1777674925 | 10° C | 69% | 1026.7 hPa | - | - | 0 W/m² | - |
| 1777674321 | 10° C | 69% | 1026.8 hPa | - | - | 0 W/m² | - |
| 1777673729 | 10° C | 68% | 1026.9 hPa | - | - | 0 W/m² | - |
| 1777673120 | 10.56° C | 67% | 1026.8 hPa | - | - | 0 W/m² | - |
| 1777672534 | 10.56° C | 66% | 1026.9 hPa | - | - | 0 W/m² | - |
| 1777671924 | 11.11° C | 65% | 1026.9 hPa | - | - | 0 W/m² | - |
| 1777671335 | 11.11° C | 63% | 1026.9 hPa | - | - | 0 W/m² | - |
| 1777670726 | 11.67° C | 63% | 1026.9 hPa | - | - | 0 W/m² | - |
| 1777670117 | 11.67° C | 62% | 1027 hPa | - | - | 0 W/m² | - |
| 1777669532 | 11.67° C | 62% | 1026.9 hPa | - | - | 0 W/m² | - |
| 1777668920 | 12.22° C | 60% | 1027 hPa | - | - | 0 W/m² | - |
* Rain since midnight (hover to see other rain measurements)
** Current wind speed in m/s (hover to see current wind gust speed)